Hourly Data Report for September 15, 2017

All times are specified in Local Standard Time (LST). Add 1 hour to adjust for Daylight Saving Time where and when it is observed.

SUMMERSIDE
PRINCE EDWARD ISLAND

46°26'28.000" N
63°50'17.000" W
12.20 m
8300596
71702
WSD

Download Data

Hourly Data (September 2017)
Hourly Data Report for September 15, 2017
Temp Definition
°C
Dew Point Temp Definition
°C
Rel Hum Definition
%
Wind Dir Definition
10's deg

Wind Spd Definition
km/h
Visibility Definition
km
Stn Press Definition
kPa
Hmdx Definition


Wind Chill Definition


Weather Definition


TIME
00:00 15.0 14.2 95 34 5   101.13     LegendNANA
01:00 15.6 14.3 93 6 22   101.23     LegendNANA
02:00 14.7 13.2 91 7 16   101.33     LegendNANA
03:00 14.5 12.1 86 6 16   101.38     LegendNANA
04:00 14.0 11.2 83 6 16   101.43     LegendNANA
05:00 13.4 10.2 81 7 12   101.53     LegendNANA
06:00 14.5 10.6 77 7 13   101.64     LegendNANA
07:00 15.1 10.6 74 6 15   101.73     LegendNANA
08:00 15.7 10.1 69 6 14   101.79     LegendNANA
09:00 16.7 10.3 66 6 12   101.87     LegendNANA
10:00 17.3 10.2 63 4 13   101.93     LegendNANA
11:00 17.3 10.1 63 4 14   101.95     LegendNANA
12:00 18.5 11.4 64 4 12   101.93     LegendNANA
13:00 18.0 10.6 62 3 13   101.91     LegendNANA
14:00 18.7 11.3 62 1 14   101.86     LegendNANA
15:00 18.0 10.9 63 3 19   101.87     LegendNANA
16:00 17.9 11.1 64 3 17   101.89     LegendNANA
17:00 17.9 11.7 67 7 13   101.90     LegendNANA
18:00 16.1 11.2 73 8 13   101.93     LegendNANA
19:00 14.4 10.2 76 10 11   101.95     LegendNANA
20:00 13.1 9.8 80 10 9   101.98     LegendNANA
21:00 13.8 10.2 79 11 12   101.96     LegendNANA
22:00 12.0 9.4 84 10 4   101.94     LegendNANA
23:00 13.2 11.0 86 16 11   101.88     LegendNANA

Notes on Data Quality.

Legend

  • E = Estimated
  • M = Missing
  • NA = Not Available
  • ‡ = Partner data that is not subject to review by the National Climate Archives
Date modified: